| time (UTC) | temp F | wind direction | speed MPH | gust MPH | rain 1hr in | rain 24hr in | rain mn in | humidity % | barometer mb |
| 20260503211505 | 76 | 191 | 2.0 | 0.0 | 0.00 | 0.00 | 0.00 | 15 | 1006.9 |
| 20260503210038 | 76 | 205 | 2.0 | 0.0 | 0.00 | 0.00 | 0.00 | 16 | 1007.1 |
| 20260503204533 | 76 | 211 | 3.0 | 0.0 | 0.00 | 0.00 | 0.00 | 16 | 1007.4 |
| 20260503203006 | 76 | 196 | 5.0 | 0.0 | 0.00 | 0.00 | 0.00 | 16 | 1007.7 |
| 20260503201554 | 76 | 190 | 4.0 | 0.0 | 0.00 | 0.00 | 0.00 | 16 | 1007.8 |
| 20260503200054 | 76 | 205 | 4.0 | 0.0 | 0.00 | 0.00 | 0.00 | 16 | 1007.9 |
| 20260503194534 | 74 | 212 | 3.0 | 0.0 | 0.00 | 0.00 | 0.00 | 18 | 1007.9 |
| 20260503193028 | 74 | 208 | 3.0 | 0.0 | 0.00 | 0.00 | 0.00 | 17 | 1008.3 |
| 20260503191516 | 73 | 247 | 3.0 | 0.0 | 0.00 | 0.00 | 0.00 | 18 | 1008.6 |
| 20260503184541 | 74 | 210 | 4.0 | 0.0 | 0.00 | 0.00 | 0.00 | 17 | 1008.9 |
| 20260503183023 | 74 | 219 | 4.0 | 0.0 | 0.00 | 0.00 | 0.00 | 17 | 1009.3 |
| 20260503181504 | 73 | 212 | 3.0 | 0.0 | 0.00 | 0.00 | 0.00 | 21 | 1009.6 |
| 20260503180103 | 72 | 296 | 2.0 | 0.0 | 0.00 | 0.00 | 0.00 | 24 | 1009.6 |
| 20260503174526 | 72 | 308 | 2.0 | 0.0 | 0.00 | 0.00 | 0.00 | 25 | 1009.8 |
| 20260503173108 | 71 | 314 | 2.0 | 0.0 | 0.00 | 0.00 | 0.00 | 26 | 1010.1 |
| 20260503171534 | 71 | 315 | 1.0 | 0.0 | 0.00 | 0.00 | 0.00 | 24 | 1010.4 |
| 20260503081514 | 50 | 328 | 0.0 | 0.0 | 0.00 | 0.00 | 0.00 | 44 | 1011.6 |
| 20260503071600 | 51 | 327 | 0.0 | 0.0 | 0.00 | 0.00 | 0.00 | 43 | 1012.1 |
| 20260503054530 | 54 | 327 | 0.0 | 0.0 | 0.00 | 0.00 | 0.00 | 38 | 1012.0 |
| 20260503053005 | 54 | 327 | 0.0 | 0.0 | 0.00 | 0.00 | 0.00 | 38 | 1012.0 |
| 20260503051550 | 54 | 328 | 0.0 | 0.0 | 0.00 | 0.00 | 0.00 | 37 | 1012.1 |
| 20260503050027 | 55 | 328 | 0.0 | 0.0 | 0.00 | 0.00 | 0.00 | 37 | 1012.3 |
| 20260503044508 | 55 | 328 | 0.0 | 0.0 | 0.00 | 0.00 | 0.00 | 37 | 1012.2 |
| 20260503043100 | 55 | 327 | 0.0 | 0.0 | 0.00 | 0.00 | 0.00 | 37 | 1012.2 |
| 20260503041534 | 56 | 327 | 0.0 | 0.0 | 0.00 | 0.00 | 0.00 | 38 | 1012.1 |
| 20260503040015 | 57 | 327 | 0.0 | 0.0 | 0.00 | 0.00 | 0.00 | 36 | 1012.1 |
| 20260503034605 | 58 | 328 | 0.0 | 0.0 | 0.00 | 0.00 | 0.00 | 35 | 1011.9 |
| 20260503033048 | 59 | 327 | 0.0 | 0.0 | 0.00 | 0.00 | 0.00 | 35 | 1011.8 |
| 20260503031554 | 59 | 328 | 0.0 | 0.0 | 0.00 | 0.00 | 0.00 | 34 | 1011.9 |
| 20260503030047 | 61 | 327 | 0.0 | 0.0 | 0.00 | 0.00 | 0.00 | 34 | 1011.8 |
| 20260503024505 | 62 | 327 | 0.0 | 0.0 | 0.00 | 0.00 | 0.00 | 31 | 1011.8 |
| 20260503023050 | 64 | 328 | 0.0 | 0.0 | 0.00 | 0.00 | 0.00 | 30 | 1011.7 |
| 20260503021540 | 66 | 328 | 0.0 | 0.0 | 0.00 | 0.00 | 0.00 | 27 | 1011.7 |
| 20260503020027 | 67 | 328 | 0.0 | 0.0 | 0.00 | 0.00 | 0.00 | 25 | 1011.5 |
| 20260503014607 | 68 | 328 | 1.0 | 0.0 | 0.00 | 0.00 | 0.00 | 24 | 1011.5 |
| 20260503013054 | 68 | 327 | 0.0 | 0.0 | 0.00 | 0.00 | 0.00 | 25 | 1011.5 |
| 20260503011551 | 69 | 327 | 1.0 | 0.0 | 0.00 | 0.00 | 0.00 | 24 | 1011.6 |
| 20260503010033 | 70 | 327 | 0.0 | 0.0 | 0.00 | 0.00 | 0.00 | 23 | 1011.5 |
| 20260503004539 | 71 | 325 | 1.0 | 0.0 | 0.00 | 0.00 | 0.00 | 21 | 1011.5 |
| 20260503003032 | 72 | 325 | 1.0 | 0.0 | 0.00 | 0.00 | 0.00 | 20 | 1011.4 |
| 20260503001515 | 72 | 327 | 2.0 | 0.0 | 0.00 | 0.00 | 0.00 | 20 | 1011.5 |
| 20260502234511 | 73 | 215 | 2.0 | 0.0 | 0.00 | 0.00 | 0.00 | 17 | 1011.9 |
| 20260502233103 | 74 | 207 | 1.0 | 0.0 | 0.00 | 0.00 | 0.00 | 16 | 1011.9 |
| 20260502231546 | 73 | 207 | 1.0 | 0.0 | 0.00 | 0.00 | 0.00 | 17 | 1012.3 |
| 20260502230024 | 73 | 207 | 2.0 | 0.0 | 0.00 | 0.00 | 0.00 | 16 | 1012.5 |
| 20260502224603 | 73 | 207 | 1.0 | 0.0 | 0.00 | 0.00 | 0.00 | 16 | 1013.0 |
| 20260502223050 | 74 | 211 | 2.0 | 0.0 | 0.00 | 0.00 | 0.00 | 17 | 1013.1 |
| 20260502221538 | 73 | 201 | 3.0 | 0.0 | 0.00 | 0.00 | 0.00 | 15 | 1013.2 |
| 20260502214529 | 73 | 200 | 4.0 | 0.0 | 0.00 | 0.00 | 0.00 | 14 | 1013.9 |
| 20260502213039 | 73 | 217 | 5.0 | 0.0 | 0.00 | 0.00 | 0.00 | 15 | 1013.9 |